EHI
1 1 0 0 0 0 0 0 0 0 0 0 0 0 0 0 0 0 0 0 0 0 1 1 1 0 0 0 0 0 0 0 0 0 0 0 0 0 0 0 0 0 0
1 0 0 0 0 0 0 0 0 0 0 0 0 0 0 0 0 0 0 0 0 0 1 1 0 0 0 0 0 0 0 0 0 0 0 0 0 0 0 0 0 0 0
1 0 0 0 0 0 0 0 0 0 0 0 0 0 0 0 0 0 0 0 0 0 0 0 0 0 0 0 0 0 0 0 0 0 0 0 0 0 0 0 0 0 0
1 0 0 0 0 0 0 0 0 0 0 0 0 0 0 0 0 0 0 0 0 0 0 0 0 0 0 0 0 0 0 0 0 0 0 0 0 0 0 0 0 0 0
0 0 0 0 0 0 0 0 0 0 0 0 0 0 0 0 0 0 0 0 0 0 0 0 0 0 0 0 0 0 0 0 0 0 0 0 0 0 0 0 0 0 0
0 0 0 0 0 0 0 0 0 0 0 0 0 0 0 0 0 0 0 0 0 0 0 0 0 0 0 0 0 0 0 0 0 0 0 0 0 0 0 0 0 0 0
0 0 0 0 0 0 0 0 0 0 0 0 0 0 0 0 0 0 0 0 0 0 0 0 0 0 0 0 0 0 0 0 0 0 0 0 0 0 0 0 0 0 0
0 0 0 0 0 0 0 0 0 0 0 0 0 0 0 0 0 0 0 0 0 0 0 0 0 0 0 0 0 0 0 0 0 0 0 0 0 0 0 0 0 0 0
0 0 0 0 0 0 0 0 0 0 0 0 0 0 0 0 0 0 0 0 0 0 0 0 0 0 0 0 0 0 0 0 0 0 0 0 0 0 0 0 0 0 0
0 0 0 0 0 0 0 0 0 0 0 0 0 0 0 0 0 0 0 0 0 0 0 0 0 0 0 0 0 0 0 0 0 0 0 0 0 0 0 0 0 0 0
0 0 0 0 0 0 0 0 0 0 0 0 0 0 0 0 0 0 0 0 0 0 0 0 0 0 0 0 0 0 0 0 0 0 0 0 0 0 0 0 0 0 0
0 0 0 0 0 0 0 0 0 0 0 0 0 0 0 0 0 0 0 0 0 0 0 0 0 0 0 0 0 0 0 0 0 0 0 0 0 0 0 0 0 0 0
0 0 0 0 0 0 0 0 0 0 0 0 0 0 0 0 0 0 0 0 0 0 0 0 0 0 0 0 0 0 0 0 0 0 0 0 0 0 0 0 0 0 0
0 0 0 0 0 0 0 0 0 0 0 0 0 0 0 0 0 0 0 0 0 0 0 0 0 0 0 0 0 0 0 0 0 0 0 0 0 0 0 0 0 0 0
0 0 0 0 0 0 0 0 0 0 0 0 0 0 0 0 0 0 0 0 0 0 0 0 0 0 0 0 0 0 0 0 0 0 0 0 0 0 0 0 0 0 0
0 0 0 0 0 0 0 0 0 0 0 0 0 0 0 0 0 0 0 0 0 0 0 0 0 0 0 0 0 0 0 0 0 0 0 0 0 0 0 0 0 0 0
0 0 0 0 0 0 0 0 0 0 0 0 0 0 0 0 0 0 0 0 0 0 0 0 0 0 0 0 0 0 0 0 0 0 0 0 0 0 0 0 0 0 0
0 0 0 0 0 0 0 0 0 0 0 0 0 0 0 0 0 0 0 0 0 0 0 0 0 0 0 0 0 0 0 0 0 0 0 0 0 0 0 0 0 0 0
0 0 0 0 0 0 0 0 0 0 0 0 0 0 0 0 0 0 0 0 0 0 0 0 0 0 0 0 0 0 0 0 0 0 0 0 0 0 0 0 0 0 0
0 0 0 0 0 0 0 0 0 0 0 0 0 0 0 0 0 0 0 0 0 0 0 0 0 0 0 0 0 0 0 0 0 0 0 0 0 0 0 0 0 0 0
0 0 0 0 0 0 0 0 0 0 0 0 0 0 0 0 0 0 0 0 0 0 0 0 0 0 0 0 0 0 0 0 0 0 0 0 0 0 0 0 0 0 0
0 0 0 0 0 0 0 0 0 0 0 0 0 0 0 0 0 0 0 0 0 0 0 0 0 0 0 0 0 0 0 0 0 0 0 0 0 0 0 0 0 0 0
0 0 0 0 0 0 0 0 0 0 0 0 0 0 0 0 0 0 0 0 0 0 0 0 0 0 0 0 0 0 0 0 0 0 0 0 0 0 0 0 0 0 0
0 0 0 0 0 0 0 0 0 0 0 0 0 0 0 0 0 0 0 0 0 0 0 0 0 0 0 0 0 0 0 0 0 0 0 0 0 0 0 0 0 0 0
0 0 0 0 0 0 0 0 0 0 0 0 0 0 0 0 0 0 0 0 0 0 0 0 0 0 0 0 0 0 0 0 0 0 0 0 0 0 0 0 0 0 0
0 0 0 0 0 0 0 0 0 0 0 0 0 0 0 0 0 0 0 0 0 0 0 0 0 0 0 0 0 0 0 0 0 0 0 0 0 0 0 0 0 0 0
Wind_Speed
2 1 1 1 1 1 1 1 0 1 0 0 1 1 1 1 1 1 2 2 2 1 1 2 2 2 2 3 3 4 4 4 4 4 5 5 6 6 6 6 6 7 7
2 2 1 1 1 1 1 1 0 1 0 0 1 1 1 1 1 1 2 1 1 0 1 2 3 3 2 3 3 3 4 4 5 5 5 6 6 6 6 7 7 7 7
2 2 2 1 1 1 1 1 1 1 1 1 1 1 1 1 1 1 1 1 1 1 1 1 2 3 3 3 4 4 4 4 5 5 5 6 6 6 6 6 7 7 7
2 2 2 1 1 1 1 1 1 1 1 1 1 1 1 1 1 1 1 1 1 1 1 2 2 3 4 4 5 5 5 5 5 6 6 6 6 7 7 7 7 7 7
3 2 2 2 1 1 1 1 1 1 1 1 1 1 1 1 0 0 0 1 1 1 1 1 2 3 4 4 4 5 5 6 6 6 6 6 7 7 7 7 7 7 7
3 2 2 2 2 1 1 1 2 1 1 1 1 1 1 1 0 0 0 1 1 1 1 1 0 1 3 4 5 5 6 6 7 7 6 6 7 7 7 7 7 7 7
3 3 2 2 2 1 1 2 2 2 1 1 1 1 1 1 0 0 0 1 1 1 1 1 1 1 1 3 4 5 6 7 7 7 7 7 7 7 7 7 7 7 8
4 3 3 2 2 2 2 2 2 2 1 1 1 1 0 2 2 1 0 1 1 0 0 1 1 1 1 0 2 5 7 8 8 8 8 7 8 8 8 8 8 8 8
4 4 3 3 3 3 3 2 3 3 2 0 0 2 1 1 1 1 1 1 1 0 0 0 0 0 1 1 1 3 6 8 8 9 8 8 8 8 8 8 8 8 9
4 4 4 3 3 2 3 3 2 2 3 1 0 0 1 2 1 1 2 1 1 1 1 1 1 1 0 0 1 4 6 7 8 8 8 8 8 8 8 8 8 9 9
4 4 4 4 3 3 3 3 2 2 2 2 1 0 0 1 0 1 2 2 2 1 1 1 1 1 0 1 1 3 6 7 8 8 8 9 9 9 9 8 8 9 10
2 4 4 4 3 3 3 3 3 3 2 2 2 1 1 1 1 1 2 2 2 2 2 1 1 1 1 1 2 5 6 7 7 8 8 9 9 9 9 9 9 9 10
2 4 4 3 3 3 3 3 3 3 3 3 2 2 1 1 1 1 1 1 2 2 1 1 1 1 1 1 1 4 5 7 7 8 8 8 9 9 9 9 9 10 10
3 4 4 3 3 3 4 3 3 3 3 3 3 2 1 1 1 1 1 1 2 2 1 2 1 1 1 1 2 4 3 7 7 8 7 8 8 8 8 9 9 10 10
3 4 4 4 3 3 3 3 2 3 3 3 3 2 2 1 1 1 1 1 2 2 3 2 1 2 1 1 3 2 2 6 7 7 7 7 7 7 7 8 8 9 9
4 4 5 4 4 4 4 4 3 3 3 3 2 3 2 2 1 1 1 1 1 2 3 2 1 2 2 2 4 3 3 6 7 7 7 7 7 7 7 7 7 8 9
4 5 5 4 4 4 4 4 4 4 4 4 3 3 3 2 2 1 1 1 1 1 3 3 2 2 2 3 4 3 3 2 3 6 7 7 7 6 7 7 7 8 9
4 4 4 4 4 4 4 4 4 4 4 4 4 3 3 2 2 1 1 1 1 1 2 4 3 2 2 2 3 3 3 3 3 5 6 7 7 6 7 7 7 8 9
3 3 4 4 4 4 4 4 4 4 4 4 4 4 3 3 2 1 1 1 1 1 1 2 3 2 2 2 3 3 4 3 4 4 5 6 7 7 7 8 8 8 9
4 4 4 4 4 4 4 4 4 3 3 4 4 4 4 4 4 3 2 2 1 1 1 1 2 2 2 2 2 3 4 3 4 3 4 5 7 8 8 8 8 8 9
4 4 3 3 3 3 3 4 4 4 4 4 3 3 4 4 5 4 3 3 2 2 1 2 2 2 2 2 2 2 3 4 4 2 3 4 3 3 4 6 7 8 8
3 3 3 3 3 3 4 4 4 4 3 4 3 3 3 3 4 4 4 4 3 3 2 2 2 3 3 2 2 2 3 3 4 2 3 4 2 3 3 2 6 8 9
3 3 3 3 3 3 4 5 4 3 3 3 3 3 2 2 3 2 3 3 3 4 4 3 4 4 3 3 2 3 3 3 4 3 3 4 3 4 4 4 8 9 9
4 4 4 4 3 4 5 5 4 3 3 3 3 4 3 3 3 3 2 2 2 2 3 3 3 3 3 2 2 3 3 4 4 3 1 4 4 4 5 4 7 8 9
3 3 4 4 4 4 6 5 4 3 3 3 3 3 3 3 4 3 2 2 2 2 3 4 4 4 4 4 2 1 1 2 4 3 1 2 3 4 4 4 5 8 9
3 3 3 4 4 4 5 6 5 2 3 3 2 3 4 4 4 4 3 3 3 3 2 2 2 3 2 3 3 2 2 2 3 3 2 1 2 3 4 4 3 4 5
Wind_Direction
124 122 120 123 129 119 121 112 56 29 358 84 91 86 80 89 92 91 94 86 73 31 356 349 338 329 346 357 2 4 355 341 331 329 329 327 329 331 335 330 326 326 326
136 127 113 110 113 117 124 126 135 83 28 46 69 70 62 63 83 93 101 96 70 92 349 345 348 342 357 6 5 1 355 349 344 341 334 322 318 318 321 325 322 319 319
135 131 125 121 132 127 121 99 68 75 73 74 53 40 63 69 67 72 83 101 97 63 29 13 2 357 351 346 344 340 337 333 330 329 328 328 325 316 315 320 325 323 319
130 121 119 112 108 120 120 125 119 89 63 80 66 24 38 67 70 64 67 85 90 82 51 34 8 350 343 341 341 339 335 327 322 321 317 317 315 311 309 311 313 315 318
137 126 122 119 106 112 117 134 115 109 88 67 73 47 22 35 80 56 100 97 92 96 104 51 9 351 337 334 336 338 336 328 322 317 315 313 314 310 308 310 310 309 310
138 122 123 122 111 105 110 113 116 96 102 97 58 31 352 311 192 159 163 94 82 78 76 63 36 357 342 332 327 329 329 328 324 317 312 312 314 313 310 311 311 313 313
140 130 127 128 126 130 139 128 112 103 87 85 69 20 340 314 193 160 146 104 97 71 56 33 33 34 339 330 324 323 322 321 321 317 312 309 307 307 306 305 307 310 312
146 149 146 149 147 140 137 132 123 119 109 91 119 112 359 342 344 308 189 167 148 108 53 33 20 12 343 336 325 323 320 318 315 314 311 307 304 304 302 303 303 307 308
153 148 152 150 154 156 164 159 152 139 151 235 142 143 148 216 306 294 248 197 179 211 246 310 308 331 354 358 341 336 329 323 317 315 314 312 309 304 303 304 305 307 307
158 154 156 154 157 157 162 168 162 153 150 170 273 305 174 168 162 296 307 297 251 250 253 305 319 293 326 337 332 335 330 322 318 315 315 315 312 307 306 307 309 310 309
166 160 162 161 167 167 170 166 155 152 160 166 168 176 314 327 186 178 262 292 310 295 273 258 267 285 306 310 314 327 329 326 319 316 312 310 308 306 306 306 311 315 313
169 168 167 168 171 170 172 174 167 167 175 168 161 147 163 182 233 213 243 271 284 288 286 279 276 272 280 316 315 327 331 330 323 318 314 312 310 306 305 305 308 311 313
178 182 175 174 174 174 174 173 168 174 177 176 178 180 188 209 228 228 225 268 281 285 290 294 283 287 308 308 297 312 314 319 317 315 313 312 310 304 304 304 304 305 309
178 173 174 174 178 177 175 174 175 180 180 180 185 184 189 212 210 215 203 226 293 291 286 279 302 291 312 291 303 315 307 315 313 312 311 311 310 306 303 304 305 306 309
167 170 173 176 182 178 175 174 181 183 176 182 185 190 193 204 204 215 198 173 193 268 282 270 286 299 323 328 325 318 308 315 319 315 316 317 316 314 316 316 315 317 318
167 171 176 179 185 185 182 180 184 188 180 187 184 190 197 206 203 200 200 213 205 223 260 266 276 300 316 318 316 309 302 317 318 313 312 315 317 318 319 317 318 317 316
172 173 176 181 188 190 187 182 186 185 189 189 191 193 200 197 200 209 213 229 241 231 259 282 286 299 311 315 319 311 308 305 305 309 310 314 312 313 314 317 317 319 319
174 170 171 184 190 190 186 182 187 187 189 191 194 192 201 201 204 204 207 233 247 244 247 276 290 298 296 301 309 312 318 319 312 309 314 317 317 317 317 316 316 317 318
173 174 175 186 191 189 189 187 185 185 191 194 191 192 198 189 203 210 214 230 250 272 267 263 280 291 292 300 315 316 313 312 311 306 306 306 308 311 310 310 310 313 314
175 183 181 186 191 190 189 184 181 184 194 197 195 192 195 195 201 201 214 221 235 260 260 265 277 288 291 298 311 315 317 319 311 310 315 308 301 303 303 303 303 307 312
182 184 175 180 182 182 183 183 188 191 194 201 200 198 199 202 214 212 213 209 209 226 242 252 263 281 285 306 304 306 304 311 308 306 313 303 300 300 301 299 300 305 310
177 171 174 177 178 189 196 203 197 188 191 199 202 207 203 204 220 231 233 232 223 216 226 236 253 258 265 273 289 301 307 313 303 314 320 305 301 296 294 288 301 305 306
172 175 179 182 190 201 208 211 211 191 190 201 200 204 216 218 214 205 223 239 245 252 246 238 243 248 253 257 268 280 284 285 278 291 319 299 305 300 297 296 298 301 305
183 185 187 193 192 207 212 217 217 198 193 204 204 203 201 207 214 209 206 223 236 250 252 243 237 246 251 247 239 256 270 287 287 286 280 280 295 295 299 295 294 302 309
194 193 191 196 195 204 206 210 215 194 200 212 211 201 197 204 222 226 205 214 238 263 267 256 259 256 263 274 277 283 287 298 294 289 270 267 288 301 295 287 293 304 310
199 194 198 200 196 201 207 207 205 186 200 213 213 208 217 223 229 228 208 204 227 247 254 270 266 268 265 265 272 243 229 259 280 279 274 284 291 313 306 295 300 310 309